Weather History for LICZ - November, 2013

Change the Weather History Date:

Saturday, November 16, 2013

  Actual Average Record
Temperature  
Mean Temperature 59 °F -  
Max Temperature 72 °F 65 °F 78 °F (2002)
Min Temperature 46 °F 46 °F 41 °F (2008)
Degree Days  
Heating Degree Days 6    
Growing Degree Days 9 (Base 50)    
Moisture  
Dew Point 52 °F    
Average Humidity 85    
Maximum Humidity 100    
Minimum Humidity 43    
Precipitation  
Precipitation 0.00 in 0.08 in - ()
Sea Level Pressure  
Sea Level Pressure 30.01 in    
Wind  
Wind Speed 4 mph ()    
Max Wind Speed 9 mph    
Max Gust Speed -    
Visibility 6.8 miles    
Events      
Averages and records for this station are not official NWS values.
T = Trace of Precipitation, MM = Missing Value Source: Averaged Metar Reports

Daily Weather History Graph

Daily Weather History Graph

Search for Another Location

Airport or City:

Trip Planner

Search our weather history database for the weather conditions in past years. The results will help you decide how hot, cold, wet, or windy it might be!

Date:

Astronomy

Nov. 16, 2013 Rise Set
Actual Time 6:40 AM CET 4:49 PM CET
Civil Twilight 6:12 AM CET 5:16 PM CET
Nautical Twilight 5:41 AM CET 5:48 PM CET
Astronomical Twilight 5:10 AM CET 6:19 PM CET
Moon 4:11 PM CET (11/16) 5:21 AM CET (11/16)
Length of Visible Light 11h 04m
Length of Day
10h 08m
Waxing Gibbous, 99% of the Moon is Illuminated
Nov 16
Waxing Gibbous
Nov 17
Full
Nov 25
Last Quarter
Dec 3
New
Dec 9
First Quarter

Hourly Weather History & Observations

Time (CET) Temp. Windchill Dew Point Humidity Pressure Visibility Wind Dir Wind Speed Gust Speed Precip Events Conditions
12:55 AM 50.0 °F - 48.2 °F 94% 29.95 in 6.2 mi SSW 2.3 mph - N/A   Partly Cloudy
1:00 AM 49 °F - 48 °F 96% 29.96 in 8 mi SSW 2.3 mph - -   Scattered Clouds
1:55 AM 46.4 °F 45.2 °F 46.4 °F 100% 29.95 in 6.2 mi West 3.5 mph - N/A   Partly Cloudy
2:55 AM 50.0 °F - 48.2 °F 94% 29.95 in 6.2 mi WNW 3.5 mph - N/A   Partly Cloudy
3:55 AM 50.0 °F - 48.2 °F 94% 29.95 in 6.2 mi NW 3.5 mph - N/A   Scattered Clouds
4:00 AM 50 °F - 48 °F 91% 29.97 in 9 mi NW 3.5 mph - -   Partly Cloudy
4:55 AM 50.0 °F - 48.2 °F 94% 29.95 in 6.2 mi WNW 4.6 mph - N/A   Partly Cloudy
5:55 AM 46.4 °F 44.3 °F 44.6 °F 93% 29.98 in 6.2 mi WSW 4.6 mph - N/A   Partly Cloudy
6:55 AM 50.0 °F - 48.2 °F 94% 29.98 in 6.2 mi West 4.6 mph - N/A   Partly Cloudy
7:00 AM 50 °F - 49 °F 93% 30.00 in 5 mi West 4.6 mph - -   Mist
7:55 AM 51.8 °F - 50.0 °F 94% 30.01 in - WSW 3.5 mph - N/A   Clear
8:55 AM 55.4 °F - 53.6 °F 94% 30.04 in 6.2 mi NW 4.6 mph - N/A   Partly Cloudy
9:55 AM 60.8 °F - 59.0 °F 94% 30.04 in 6.2 mi West 6.9 mph - N/A   Partly Cloudy
10:00 AM 62 °F - 59 °F 85% 30.05 in 5 mi West 6.9 mph - -   Mist
10:55 AM 64.4 °F - 60.8 °F 88% 30.04 in 6.2 mi WNW 4.6 mph - N/A   Partly Cloudy
11:55 AM 66.2 °F - 53.6 °F 64% 30.01 in 6.2 mi WNW 6.9 mph - N/A   Scattered Clouds
12:55 PM 69.8 °F - 53.6 °F 56% 30.01 in 6.2 mi WNW 4.6 mph - N/A   Scattered Clouds
1:00 PM 69 °F - 54 °F 48% 30.01 in 10 mi WNW 4.6 mph - -   Partly Cloudy
1:55 PM 68.0 °F - 53.6 °F 60% 30.01 in 6.2 mi West 2.3 mph - N/A   Scattered Clouds
2:55 PM 69.8 °F - 53.6 °F 56% 29.98 in 6.2 mi West 6.9 mph - N/A   Scattered Clouds
3:55 PM 68.0 °F - 51.8 °F 56% 30.01 in 6.2 mi WSW 9.2 mph - N/A   Scattered Clouds
4:00 PM 69 °F - 51 °F 43% 30.01 in 10 mi WSW 9.2 mph - -   Partly Cloudy
4:55 PM 60.8 °F - 53.6 °F 77% 30.01 in 6.2 mi WSW 4.6 mph - N/A   Scattered Clouds
5:55 PM 59.0 °F - 55.4 °F 88% 30.01 in 6.2 mi SW 2.3 mph - N/A   Partly Cloudy
6:55 PM 57.2 °F - 55.4 °F 94% 30.04 in - East 6.9 mph - N/A   Clear
7:00 PM 57 °F - 54 °F 88% 30.05 in 12 mi East 6.9 mph - -  
7:55 PM 55.4 °F - 53.6 °F 94% 30.06 in - NNW 4.6 mph - N/A   Clear
8:55 PM 55.4 °F - 55.4 °F 100% 30.06 in - SSW 2.3 mph - N/A   Clear
9:55 PM 51.8 °F - 51.8 °F 100% 30.06 in - WSW 3.5 mph - N/A   Clear
10:00 PM 52 °F - 52 °F 99% 30.09 in 6 mi WSW 3.5 mph - -  
10:55 PM 50.0 °F - 50.0 °F 100% 30.09 in - West 3.5 mph - N/A   Clear
11:55 PM 50.0 °F - 50.0 °F 100% 30.09 in - WNW 5.8 mph - N/A   Clear